| time (UTC) | temp C | wind direction | speed KPH | gust KPH | rain 1hr cm | rain 24hr cm | rain mn cm | humidity % | barometer mb |
| 20260505214529 | 11 | 27 | 8.0 | 17.7 | 0.00 | 0.05 | 0.00 | 79 | 1014.0 |
| 20260505213030 | 11 | 10 | 9.7 | 16.1 | 0.00 | 0.05 | 0.00 | 79 | 1014.1 |
| 20260505211532 | 11 | 13 | 4.8 | 11.3 | 0.00 | 0.05 | 0.00 | 78 | 1014.1 |
| 20260505210031 | 11 | 353 | 4.8 | 14.5 | 0.00 | 0.05 | 0.00 | 78 | 1014.1 |
| 20260505204531 | 11 | 325 | 8.0 | 16.1 | 0.00 | 0.05 | 0.00 | 77 | 1014.1 |
| 20260505203036 | 11 | 308 | 11.3 | 19.3 | 0.00 | 0.05 | 0.00 | 77 | 1013.9 |
| 20260505201545 | 11 | 326 | 9.7 | 20.9 | 0.00 | 0.05 | 0.00 | 76 | 1013.8 |
| 20260505200033 | 12 | 333 | 9.7 | 19.3 | 0.00 | 0.05 | 0.00 | 76 | 1013.8 |
| 20260505194532 | 12 | 343 | 9.7 | 19.3 | 0.00 | 0.05 | 0.00 | 75 | 1013.7 |
| 20260505193032 | 12 | 19 | 11.3 | 20.9 | 0.00 | 0.05 | 0.00 | 74 | 1013.5 |
| 20260505191529 | 12 | 332 | 8.0 | 20.9 | 0.00 | 0.05 | 0.00 | 71 | 1013.5 |
| 20260505190035 | 13 | 24 | 12.9 | 19.3 | 0.00 | 0.05 | 0.00 | 70 | 1013.5 |
| 20260505184532 | 13 | 10 | 11.3 | 22.5 | 0.00 | 0.05 | 0.00 | 70 | 1013.4 |
| 20260505183044 | 13 | 17 | 14.5 | 24.1 | 0.00 | 0.05 | 0.00 | 70 | 1013.4 |
| 20260505181534 | 13 | 4 | 11.3 | 24.1 | 0.00 | 0.05 | 0.00 | 69 | 1013.3 |
| 20260505180031 | 13 | 316 | 8.0 | 19.3 | 0.00 | 0.05 | 0.00 | 69 | 1013.3 |
| 20260505174528 | 13 | 257 | 12.9 | 25.7 | 0.00 | 0.05 | 0.00 | 68 | 1013.3 |
| 20260505173040 | 14 | 323 | 14.5 | 27.4 | 0.00 | 0.05 | 0.00 | 67 | 1013.2 |
| 20260505171542 | 14 | 18 | 11.3 | 24.1 | 0.00 | 0.05 | 0.00 | 67 | 1013.3 |
| 20260505170030 | 14 | 34 | 12.9 | 20.9 | 0.00 | 0.05 | 0.00 | 64 | 1013.3 |
| 20260505164531 | 14 | 76 | 9.7 | 19.3 | 0.00 | 0.05 | 0.00 | 63 | 1013.3 |
| 20260505163030 | 15 | 39 | 8.0 | 19.3 | 0.00 | 0.05 | 0.00 | 64 | 1013.2 |
| 20260505161532 | 14 | 328 | 12.9 | 22.5 | 0.00 | 0.05 | 0.00 | 64 | 1013.2 |
| 20260505153032 | 15 | 78 | 8.0 | 20.9 | 0.00 | 0.05 | 0.00 | 61 | 1013.4 |
| 20260505151536 | 15 | 25 | 6.4 | 20.9 | 0.00 | 0.05 | 0.00 | 62 | 1013.3 |
| 20260505124533 | 15 | 53 | 3.2 | 12.9 | 0.00 | 0.05 | 0.00 | 57 | 1013.6 |
| 20260505123035 | 15 | 24 | 4.8 | 14.5 | 0.00 | 0.05 | 0.00 | 58 | 1013.7 |
| 20260505121537 | 15 | 117 | 1.6 | 14.5 | 0.00 | 0.05 | 0.00 | 60 | 1013.6 |
| 20260505120054 | 15 | 347 | 6.4 | 14.5 | 0.00 | 0.05 | 0.00 | 56 | 1013.6 |
| 20260505114530 | 15 | 70 | 11.3 | 25.7 | 0.00 | 0.23 | 0.00 | 61 | 1013.7 |
| 20260505113032 | 14 | 96 | 8.0 | 16.1 | 0.00 | 0.23 | 0.00 | 62 | 1013.8 |
| 20260505111528 | 14 | 16 | 4.8 | 16.1 | 0.00 | 0.23 | 0.00 | 61 | 1013.9 |
| 20260505101529 | 14 | 50 | 8.0 | 12.9 | 0.00 | 0.23 | 0.00 | 63 | 1014.4 |
| 20260505100030 | 13 | 41 | 3.2 | 16.1 | 0.00 | 0.23 | 0.00 | 64 | 1014.4 |
| 20260505094530 | 13 | 301 | 8.0 | 16.1 | 0.00 | 0.23 | 0.00 | 66 | 1014.5 |
| 20260505093033 | 13 | 6 | 8.0 | 16.1 | 0.00 | 0.23 | 0.00 | 66 | 1014.5 |
| 20260505091530 | 13 | 18 | 8.0 | 16.1 | 0.00 | 0.23 | 0.00 | 69 | 1014.6 |
| 20260505090040 | 12 | 30 | 8.0 | 16.1 | 0.00 | 0.23 | 0.00 | 70 | 1014.6 |
| 20260505084530 | 13 | 41 | 6.4 | 14.5 | 0.00 | 0.25 | 0.00 | 72 | 1014.6 |
| 20260505083029 | 13 | 89 | 1.6 | 8.0 | 0.00 | 0.25 | 0.00 | 75 | 1014.5 |
| 20260505081539 | 12 | 89 | 1.6 | 9.7 | 0.00 | 0.25 | 0.00 | 78 | 1014.6 |
| 20260505080038 | 12 | 70 | 1.6 | 8.0 | 0.00 | 0.25 | 0.00 | 81 | 1014.6 |
| 20260505074531 | 11 | 37 | 3.2 | 12.9 | 0.00 | 0.28 | 0.00 | 83 | 1014.5 |
| 20260505073046 | 11 | 309 | 4.8 | 11.3 | 0.00 | 0.28 | 0.00 | 86 | 1014.5 |
| 20260505071530 | 11 | 14 | 4.8 | 11.3 | 0.00 | 0.28 | 0.00 | 87 | 1014.5 |
| 20260505070034 | 11 | 326 | 3.2 | 6.4 | 0.00 | 0.28 | 0.00 | 88 | 1014.6 |
| 20260505064540 | 11 | 13 | 1.6 | 8.0 | 0.00 | 0.38 | 0.00 | 87 | 1014.6 |
| 20260505063030 | 11 | 0 | 0.0 | 3.2 | 0.00 | 0.38 | 0.00 | 87 | 1014.6 |
| 20260505061547 | 11 | 29 | 1.6 | 6.4 | 0.00 | 0.38 | 0.00 | 88 | 1014.4 |
| 20260505060035 | 11 | 0 | 0.0 | 3.2 | 0.00 | 0.38 | 0.00 | 88 | 1014.4 |
| 20260505054556 | 11 | 0 | 0.0 | 6.4 | 0.00 | 0.61 | 0.00 | 88 | 1014.3 |
| 20260505053035 | 11 | 14 | 0.0 | 4.8 | 0.00 | 0.61 | 0.00 | 88 | 1014.3 |
| 20260505051533 | 11 | 340 | 1.6 | 8.0 | 0.00 | 0.61 | 0.00 | 88 | 1014.3 |
| 20260505041531 | 11 | 0 | 0.0 | 4.8 | 0.00 | 0.64 | 0.00 | 89 | 1014.2 |
| 20260505040030 | 12 | 27 | 0.0 | 3.2 | 0.00 | 0.64 | 0.00 | 89 | 1014.3 |
| 20260505034530 | 12 | 0 | 0.0 | 4.8 | 0.00 | 0.64 | 0.00 | 89 | 1014.1 |
| 20260505033030 | 11 | 0 | 0.0 | 6.4 | 0.00 | 0.64 | 0.00 | 88 | 1014.2 |
| 20260505031542 | 12 | 0 | 0.0 | 6.4 | 0.00 | 0.64 | 0.00 | 89 | 1014.2 |
| 20260505030031 | 12 | 0 | 0.0 | 3.2 | 0.00 | 0.64 | 0.00 | 89 | 1014.2 |
| 20260505024538 | 12 | 90 | 0.0 | 3.2 | 0.00 | 0.64 | 0.00 | 90 | 1014.1 |
| 20260505023033 | 12 | 0 | 0.0 | 1.6 | 0.00 | 0.64 | 0.00 | 90 | 1014.2 |
| 20260505021532 | 12 | 18 | 0.0 | 1.6 | 0.00 | 0.64 | 0.00 | 90 | 1014.1 |
| 20260505020033 | 12 | 0 | 0.0 | 4.8 | 0.00 | 0.64 | 0.00 | 90 | 1014.2 |
| 20260505014535 | 12 | 86 | 1.6 | 6.4 | 0.00 | 0.64 | 0.00 | 90 | 1014.2 |
| 20260505013029 | 12 | 53 | 1.6 | 6.4 | 0.00 | 0.64 | 0.00 | 90 | 1014.4 |
| 20260505011534 | 12 | 79 | 0.0 | 4.8 | 0.00 | 0.64 | 0.00 | 91 | 1014.4 |
| 20260505010030 | 12 | 0 | 0.0 | 3.2 | 0.00 | 0.64 | 0.00 | 92 | 1014.5 |
| 20260505004544 | 12 | 0 | 0.0 | 3.2 | 0.00 | 0.64 | 0.00 | 92 | 1014.6 |
| 20260505003032 | 12 | 25 | 0.0 | 3.2 | 0.00 | 0.64 | 0.00 | 92 | 1014.7 |
| 20260505001531 | 12 | 43 | 0.0 | 4.8 | 0.00 | 0.64 | 0.00 | 93 | 1014.7 |
| 20260505000049 | 12 | 18 | 0.0 | 3.2 | 0.00 | 0.64 | 0.00 | 93 | 1014.8 |
| 20260504234532 | 12 | 0 | 0.0 | 3.2 | 0.00 | 0.64 | 0.00 | 93 | 1014.8 |
| 20260504233032 | 12 | 0 | 0.0 | 6.4 | 0.00 | 0.64 | 0.00 | 93 | 1014.8 |
| 20260504231532 | 12 | 99 | 3.2 | 8.0 | 0.05 | 0.64 | 0.00 | 93 | 1014.9 |
| 20260504230030 | 12 | 80 | 1.6 | 8.0 | 0.05 | 0.64 | 0.00 | 93 | 1014.8 |
| 20260504224532 | 12 | 75 | 0.0 | 9.7 | 0.05 | 0.64 | 0.64 | 93 | 1014.8 |
| 20260504223030 | 12 | 0 | 0.0 | 3.2 | 0.03 | 0.64 | 0.64 | 92 | 1014.9 |
| 20260504221539 | 13 | 98 | 0.0 | 9.7 | 0.00 | 0.58 | 0.58 | 92 | 1014.9 |
| 20260504220031 | 13 | 49 | 1.6 | 6.4 | 0.00 | 0.58 | 0.58 | 90 | 1014.9 |